www.pogodaiklimat.ru

Погода и климат >> Архив погоды >> Аруба >> Королевы Беатрикс аэропорт


ПОГОДА Королевы Беатрикс аэропорту

  • Прогноз погоды Королевы Беатрикс аэропорту
  • Монитор погоды Королевы Беатрикс аэропорту

АРХИВ ПОГОДЫ Королевы Беатрикс аэропорту

Время (UTC), дата Ветер
(напр.,м/с)
 
Видим.   Явления Облачность Т
(С)
Тd
(С)
f
(%)
Тe
(С)
Тes
(С)
Комфортность P
(гПа)
Po
(гПа)
Тmin
(С)
Tmax
(С)
R
(мм)
R24
(мм)
S
(см)
03 9.06 В 8 15 км мгла 8/1 500 м
[Cu med, cong Ci fib]
+27.8 +24.5 82 +39 +39 очень
душно
1013.8 1013.4
06 9.06 В 8 15 км мгла 8/1 500 м
[Cu med, cong Ci fib]
+27.5 +24.4 83 +39 +39 очень
душно
1012.3 1011.9
09 9.06 В 9 15 км мгла 8/1 500 м
[Cu med, cong Ci fib]
+27.4 +23.5 79 +37 +37 очень
душно
1012.6 1012.2
12 9.06 В 10 15 км мгла 6/1 570 м
[Cu med, cong Ci fib]
+28.6 +23.6 74 +39 +39 очень
душно
1013.4 1013.0 +27.2 +32.0
15 9.06 В 11 18 км мгла 6/4 700 м
[Cu med, cong Ci fib]
+31.2 +23.7 64 +42 +42 опасность
перегрева
1014.4 1014.0
18 9.06 В 11 15 км мгла 8/4 750 м
[Cu med, cong Ac trans Ci fib]
+31.7 +23.7 63 +43 +43 опасность
перегрева
1013.2 1012.8
21 9.06 В 10 20 км мгла 4/1 600 м
[Cu hum Ci ing]
+30.2 +24.5 72 +43 +43 опасность
перегрева
1011.4 1011.0
00 10.06 В 9 20 км мгла 4/1 570 м
[Cu hum Ci fib]
+28.0 +24.3 80 +39 +39 очень
душно
1012.2 1011.8 +27.2 +32.8
06 10.06 В 10 20 км мгла 5/4 500 м
[Cu med, cong Ci fib]
+27.8 +24.5 82 +39 +39 очень
душно
1012.6 1012.2
09 10.06 В 9 20 км мгла 6/3 500 м
[Cu med, cong Ac trans Ci fib]
+27.6 +24.1 81 +38 +38 очень
душно
1012.6 1012.2
12 10.06 В 10 20 км мгла 8/1 540 м
[Cu med, cong Ac trans Ci fib]
+28.6 +24.7 79 +41 +41 опасность
перегрева
1013.1 1012.7 +27.5 +32.8
15 10.06 ЮВ 7 20 км мгла 9/5 600 м
[Cu med, cong Ac trans Ci fib]
+30.3 +24.3 70 +42 +44 опасность
перегрева
1014.0 1013.6
18 10.06 В 10 н/о ливневой дождь 10/6 500 м
[St Cs]
+29.1 +25.4 80 +42 +43 опасность
перегрева
1012.7 1012.3 0.2
21 10.06 В 13 18 км мгла 10/1 540 м
[Cu med, cong As op Cs]
+29.5 +24.5 75 +42 +42 опасность
перегрева
1011.0 1010.6 0.2
00 11.06 В 11 18 км мгла 10/1 500 м
[Cu hum As op Cs]
+28.1 +24.4 80 +39 +39 очень
душно
1012.2 1011.8 +27.5 +31.4
03 11.06 В 10 18 км мгла 9/6 500 м
[Cu med, cong Ci fib]
+28.0 +24.1 79 +39 +39 очень
душно
1014.0 1013.6
06 11.06 В 9 18 км мгла 9/9 500 м
[]
+27.6 +24.3 82 +39 +39 очень
душно
1012.7 1012.3
09 11.06 ЮВ 8 18 км мгла 9/3 500 м
[Cu med, cong Ci fib]
+27.4 +23.5 79 +37 +37 очень
душно
1012.8 1012.4
12 11.06 В 4 20 км мгла 6/1 600 м
[Cu med, cong Ac trans Ci fib]
+28.4 +23.4 74 +38 +40 очень
душно
1014.7 1014.3 +27.3 +31.4
15 11.06 В 11 18 км мгла 8/4 720 м
[Cu med, cong Ac trans Ci fib]
+30.1 +23.2 67 +41 +41 опасность
перегрева
1015.1 1014.7
18 11.06 В 11 20 км мгла 5/1 720 м
[Cu med, cong Ac trans Cs]
+31.9 +23.1 60 +42 +42 опасность
перегрева
1013.8 1013.4
03 12.06 В 9 15 км мгла 8/1 540 м
[Cu hum Ci fib]
+27.6 +23.1 77 +37 +37 очень
душно
1014.3 1013.9
06 12.06 В 9 15 км мгла 8/1 540 м
[Cu hum Ci fib]
+27.6 +22.6 74 +36 +36 очень
душно
1012.8 1012.3
09 12.06 В 8 15 км мгла 8/4 500 м
[Cu med, cong Ci fib]
+27.2 +22.9 77 +36 +36 очень
душно
1013.1 1012.7
12 12.06 В 9 25 км мгла 8/4 500 м
[Cu med, cong Ci fib]
+28.3 +23.1 73 +38 +38 очень
душно
1014.4 1014.0 +27.1 +32.7
15 12.06 В 10 25 км мгла 8/4 700 м
[Cu med, cong Ci fib]
+29.8 +22.7 66 +39 +40 очень
душно
1015.1 1014.7
18 12.06 В 9 20 км мгла 8/3 700 м
[Cu med, cong Ci fib]
+30.8 +22.6 62 +40 +41 очень
душно
1013.8 1013.4
21 12.06 В 11 20 км мгла 9/1 600 м
[Cu med, cong Cs]
+29.1 +23.4 71 +39 +39 очень
душно
1011.9 1011.5
00 13.06 В 8 20 км мгла 9/1 500 м
[Cu med, cong Cs]
+27.8 +23.7 78 +38 +38 очень
душно
1012.9 1012.5 +27.1 +32.2
03 13.06 В 7 20 км мгла 9/1 500 м
[Cu med, cong Cs]
+27.4 +23.7 80 +37 +37 очень
душно
1014.1 1013.7
06 13.06 В 8 20 км мгла 9/3 500 м
[Cu med, cong Cs]
+27.3 +23.8 81 +37 +37 очень
душно
1013.2 1012.8
12 13.06 В 9 30 км 4/4 600 м
[Cu med, cong Ci fib]
+28.4 +23.2 73 +38 +38 очень
душно
1014.8 1014.4 +27.0 +32.2
15 13.06 ЮВ 10 40 км 4/4 700 м
[Cu med, cong Ci fib]
+31.0 +22.5 61 +41 +41 опасность
перегрева
1015.7 1015.3
18 13.06 ЮВ 10 30 км 9/4 750 м
[Cu med, cong Ci fib]
+31.2 +23.2 63 +42 +42 опасность
перегрева
1014.0 1013.6
21 13.06 В 11 40 км 5/1 630 м
[Cu med, cong Ci fib]
+29.9 +23.7 69 +41 +41 опасность
перегрева
1011.9 1011.5
00 14.06 В 11 30 км 4/1 540 м
[Cu hum Ci fib]
+28.0 +22.1 70 +36 +36 очень
душно
1012.2 1011.8 +27.0 +32.5
03 14.06 В 8 30 км 4/1 540 м
[Cu med, cong Ci fib]
+27.8 +23.1 76 +37 +37 очень
душно
1014.7 1014.3
06 14.06 В 8 30 км 4/1 540 м
[Cu med, cong Ci fib]
+27.1 +22.8 77 +36 +36 очень
душно
1013.4 1013.0
09 14.06 В 8 30 км 4/1 540 м
[Cu med, cong Ci fib]
+27.3 +23.0 77 +36 +36 очень
душно
1013.5 1013.1
12 14.06 ЮВ 8 30 км 5/4 570 м
[Cu med, cong Ci fib]
+28.0 +23.5 77 +38 +39 очень
душно
1014.9 1014.5 +27.0 +32.5
15 14.06 В 10 30 км 6/6 720 м
[Cu med, cong Ci fib]
+29.9 +23.0 67 +40 +40 очень
душно
1015.0 1014.6
18 14.06 В 11 30 км 5/5 700 м
[Cu med, cong Ci fib]
+31.6 +24.1 65 +44 +44 опасность
перегрева
1013.7 1013.3
21 14.06 В 11 30 км 4/4 600 м
[]
+30.1 +24.4 72 +42 +42 опасность
перегрева
1011.6 1011.2
00 15.06 В 8 30 км 3/3 540 м
[Cu med, cong Ci fib]
+28.1 +24.4 80 +39 +39 очень
душно
1012.7 1012.3 +27.0 +32.4
06 15.06 В 7 30 км 1/1 500 м
[Cu hum Ci fib]
+27.5 +23.6 79 +37 +37 очень
душно
1013.0 1012.6
09 15.06 В 8 30 км 1/1 500 м
[Cu hum Ci fib]
+27.2 +23.3 79 +37 +37 очень
душно
1013.0 1012.6
12 15.06 В 9 20 км {ливн. осадки} 6/4 500 м
[Cu med, cong Ac As Ci fib]
+27.5 +24.0 81 +38 +38 очень
душно
1014.2 1013.8 +25.6 +32.4 0.2
15 15.06 В 11 20 км 5/4 660 м
[Cu med, cong Ci fib]
+31.4 +23.7 64 +43 +43 опасность
перегрева
1014.9 1014.5
18 15.06 В 10 15 км мгла 6/5 720 м
[Cu med, cong Ci fib]
+31.6 +23.9 64 +43 +44 опасность
перегрева
1013.2 1012.8
21 15.06 В 10 15 км мгла 5/3 630 м
[Cu med, cong Ci fib]
+30.0 +23.8 69 +41 +41 опасность
перегрева
1011.5 1011.1

 

Местоположение метеостанции Королевы Беатрикс аэропорт (Аруба): широта 12.50 долгота -70.01 высота над уровнем моря 5 м.

В архиве по умолчанию представлена погода Королевы Беатрикс аэропорту за последнюю неделю. Архивные данные за месяц целиком и за предыдущие месяцы, начиная с января 2011 года, Вы можете получить, выбрав интересующий диапазон дат из раскрывающегося списка и нажав кнопку "Ввод!".


*Определитесь, кто Вы:
робот инопланетянин человек

Внимание! Время в таблицах - всемирное. Для получения местного времени необходимо прибавить поправку, которая равна -4 ч.

Смотрите также архив погоды в соседних городах и на ближайших метеорологических станциях:

Погода в Кюрасао аэропорту (Нидерландские Антилы) (119 км)
Погода в Коро (Венесуэла) (125 км)
Погода в Баркисимето (Венесуэла) (281 км)
Погода в Маракайбо (Венесуэла) (284 км)
Погода в Маракайбо аэропорту (Венесуэла) (285 км)
Погода в Мене Гранде (Венесуэла) (315 км)
Погода в Риоаче (Колумбия) (335 км)
Погода в Акаригуа (Венесуэла) (339 км)
Погода в Валенсии (Венесуэла) (344 км)
Погода в Валере (Венесуэла) (356 км)

Пояснения к столбцам:

Ветер - указаны скорость ветра в м/с - средняя за 10 мин, порывы в срок и между сроками (в фигурных скобках) и направление, откуда дует ветер: С - северный, СВ - северо-восточный, В - восточный, ЮВ - юго-восточный, Ю - южный, ЮЗ - юго-западный, З - западный, СЗ - северо-западный.
Видимость - горизонтальная дальность видимости в метрах или километрах. При видимости от 1 до 10 км при отсутствии осадков обычно наблюдается дымка, при ухудшении видимости до 1 км и менее - туман. В сухую погоду видимость может ухудшаться дымом, пылью или мглою.
Явления - указаны атмосферные явления, наблюдавшиеся в срок или в последний час перед сроком; фигурными скобками обозначены явления, наблюдавшиеся между сроками (за 1-3 часа до срока); квадратными скобками обозначены град или гололедные отложения с указанием их диаметра в мм.
Облачность - указаны через наклонную черту общая и нижняя облачность в баллах и высота нижней границы облаков в метрах; квадратными скобками обозначены формы облаков: Ci - перистые, Cs - перисто-слоистые, Cc - перисто-кучевые, Ac - высококучевые, As - высокослоистые, Sc - слоисто-кучевые, Ns - слоисто-дождевые, Cu - кучевые, Cb - кучево-дождевые. Подробнее классификацию облаков см. в Атласе облаков (PDF).
T - Температура воздуха - температура, измеренная на высоте 2 м над землей.
Td - Температура точки росы - температура, при понижении до которой содержащийся в воздухе водяной пар достигнет насыщения.
f - Относительная влажность воздуха - влажноcть воздуха, измеренная на высоте 2 м над землей.
Te - Эффективная температура - температура, которую ощущает одетый по сезону человек в тени. Характеристика душности погоды. При расчете учитывается влияние влажности воздуха и скорости ветра на теплоощущения человека.
Tes - Эффективная температура на солнце - температура, которую ощущает человек, с поправкой на солнечный нагрев. Характеристика знойности погоды. Зависит от высоты солнца над горизонтом, облачности и скорости ветра. Ночью, в пасмурную погоду, а также при ветре 12 м/с и более поправка равна нулю.
P - Атмосферное давление - приведенное к уровню моря атмосферное давление.
Po - Атмосферное давление - измеренное на уровне метеостанции атмосферное давление.
Tmin - Минимальная температура - минимум температуры воздуха на высоте 2 м над землей.
Tmax - Максимальная температура - максимум температуры воздуха на высоте 2 м над землей.
R - Количество осадков - Количество выпавших осадков за период времени, мм. При наведении курсора мыши на число - период времени, за который выпало указанное количество осадков.
R24 - Количество осадков - Количество выпавших осадков за 24 часа, мм.
S - Снежный покров - Высота снежного покрова, см. При наведении курсора мыши на число - состояние снежного покрова и степень покрытия местности в баллах.